Location: Observatoire
(46.1952°N, 5.3391°E)
Time: 15:53:00
(UTC+01:00)

Courier 1B - Pass Details

Date: 17 February 2026
Orbit: 962 x 1208 km, 28.3° (Epoch: 5 March)

Event Time Altitude Azimuth Distance (km) Brightness Sun altitude
Rises 20:46:53 0° 222° (SW) 3,933 11.0 -28.1°
Reaches altitude 10° 20:50:48 10° 203° (SSW) 3,023 10.1 -28.8°
Enters shadow 20:53:42 16° 180° (S) 2,649 9.6 -29.3°
